This demonstration page uses our WeatherBlox Daily Observations layout. Learn more.

Left ArrowRight Arrow

Hourly Observations for July 9, 2016

Temp ( °F °C ) Dew Point ( °F °C ) Humidity (%) Winds ( mph kmh ) Pressure ( in mb ) Visibility ( mi km ) Precip ( " mm )
12:51 am 00:51 Clear 80 26.7 44 6.7 28 28 WNW 7 11 29.81 1010 10 16 0.00 0.00
1:51 am 01:51 Clear 78 25.6 44 6.7 30 30 NW 6 9 29.83 1010 10 16 0.00 0.00
2:51 am 02:51 Clear 74 23.3 47 8.3 38 38 SE 5 7 29.85 1011 10 16 0.00 0.00
3:51 am 03:51 Clear 73 22.8 46 7.8 38 38 E 6 9 29.85 1011 10 16 0.00 0.00
4:51 am 04:51 Clear 73 22.8 45 7.2 37 37 Calm 29.87 1012 10 16 0.00 0.00
5:51 am 05:51 Sunny 72 22.2 46 7.8 40 40 SE 6 9 29.90 1012 10 16 0.00 0.00
6:51 am 06:51 Sunny 78 25.6 46 7.8 32 32 S 6 9 29.91 1013 10 16 0.00 0.00
7:51 am 07:51 Sunny 82 27.8 45 7.2 27 27 Calm 29.92 1013 10 16 0.00 0.00
8:51 am 08:51 Sunny 89 31.7 45 7.2 22 22 VRB 5 7 29.92 1013 10 16 0.00 0.00
9:51 am 09:51 Sunny 95 35 45 7.2 18 18 WNW 16 26 29.90 1013 10 16 0.00 0.00
10:51 am 10:51 Sunny 97 36.1 45 7.2 17 17 W 16 26 29.89 1012 10 16 0.00 0.00
11:51 am 11:51 Sunny 101 38.3 45 7.2 15 15 WNW 21 33 29.86 1011 10 16 0.00 0.00
12:51 pm 12:51 Sunny 103 39.4 45 7.2 14 14 WNW 21 33 29.83 1010 10 16 0.00 0.00
1:51 pm 13:51 Sunny 104 40 44 6.7 13 13 WNW 17 28 29.82 1010 10 16 0.00 0.00
2:51 pm 14:51 Sunny 104 40 45 7.2 13 13 NW 18 30 29.80 1009 10 16 0.00 0.00
3:51 pm 15:51 Sunny 105 40.6 45 7.2 13 13 W 21 33 29.77 1008 10 16 0.00 0.00
4:51 pm 16:51 Sunny 103 39.4 43 6.1 13 13 WNW 15 24 29.75 1008 10 16 0.00 0.00
5:51 pm 17:51 Sunny 102 38.9 43 6.1 13 13 WNW 20 31 29.75 1008 10 16 0.00 0.00
6:51 pm 18:51 Sunny 99 37.2 42 5.6 14 14 WNW 18 30 29.74 1007 10 16 0.00 0.00
7:51 pm 19:51 Clear 94 34.4 42 5.6 17 17 WNW 15 24 29.76 1008 10 16 0.00 0.00
8:51 pm 20:51 Clear 90 32.2 42 5.6 19 19 NW 12 19 29.78 1008 10 16 0.00 0.00
9:51 pm 21:51 Clear 89 31.7 41 5 19 19 NW 15 24 29.78 1009 10 16 0.00 0.00
10:51 pm 22:51 Clear 88 31.1 42 5.6 20 20 NW 13 20 29.78 1008 10 16 0.00 0.00
11:51 pm 23:51 Clear 86 30 42 5.6 21 21 NW 12 19 29.77 1008 10 16 0.00 0.00

Powered by AerisWeather